This is the latest recevied weather packets stored in our database for station/object DO6MJ-1. If no packets are shown the sender has not sent any weather packets the latest 10 day(s).
| Time | Temp. | Humidity | Pressure | Rain* | Wind** | Luminosity | Snow |
|---|---|---|---|---|---|---|---|
| 1787705068 | 16.67° C | 68% | 1010.8 hPa | 0 mm | - | - | - |
| 1787703868 | 17.22° C | 67% | 1010.8 hPa | 0 mm | - | - | - |
| 1787702668 | 17.22° C | 66% | 1010.7 hPa | 0 mm | - | - | - |
| 1787701467 | 17.22° C | 66% | 1010.8 hPa | 0 mm | - | - | - |
| 1787700267 | 17.78° C | 65% | 1010.8 hPa | 0 mm | - | - | - |
| 1787699067 | 17.78° C | 65% | 1010.6 hPa | 0 mm | - | - | - |
| 1787697866 | 17.78° C | 65% | 1010.6 hPa | 0 mm | - | - | - |
| 1787696666 | 17.78° C | 64% | 1010.6 hPa | 0 mm | - | - | - |
| 1787695466 | 17.78° C | 63% | 1010.7 hPa | 0 mm | - | - | - |
| 1787694266 | 18.33° C | 62% | 1010.6 hPa | 0 mm | - | - | - |
| 1787693065 | 18.33° C | 62% | 1010.5 hPa | 0 mm | - | - | - |
| 1787691865 | 18.89° C | 61% | 1010.4 hPa | 0 mm | - | - | - |
| 1787690665 | 18.89° C | 60% | 1010.4 hPa | 0 mm | - | - | - |
| 1787689464 | 18.89° C | 60% | 1010.4 hPa | 0 mm | - | - | - |
| 1787688264 | 19.44° C | 58% | 1010.4 hPa | 0 mm | - | - | - |
| 1787687064 | 19.44° C | 57% | 1010.2 hPa | 0 mm | - | - | - |
| 1787685864 | 20° C | 56% | 1010 hPa | 0 mm | - | - | - |
| 1787684663 | 20.56° C | 55% | 1009.8 hPa | 0 mm | - | - | - |
| 1787683463 | 20.56° C | 54% | 1009.7 hPa | 0 mm | - | - | - |
| 1787682263 | 21.11° C | 52% | 1009.6 hPa | 0 mm | - | - | - |
| 1787681063 | 21.67° C | 51% | 1009.4 hPa | 0 mm | - | - | - |
| 1787679862 | 22.22° C | 50% | 1009.4 hPa | 0 mm | - | - | - |
| 1787678662 | 23.33° C | 47% | 1009.5 hPa | 0 mm | - | - | - |
| 1787677462 | 23.33° C | 46% | 1009.2 hPa | 0 mm | - | - | - |
| 1787676261 | 23.89° C | 45% | 1009.3 hPa | 0 mm | - | - | - |
* Rain latest hour (hover to see other rain measurements)
** Current wind speed in m/s (hover to see current wind gust speed)